Kailua Kona, HI

9:29 PM HST on January 17, 2017 (GMT -1000)
Kona International At Keahole

Weather History for PHKO - December, 2014

Change the Weather History Date:

Tuesday, December 30, 2014

  Actual Average Record
Temperature  
Mean Temperature 77 °F -  
Max Temperature 82 °F 79 °F 88 °F (1983)
Min Temperature 72 °F 67 °F 61 °F (1990)
Cooling Degree Days 12    
Growing Degree Days 27 (Base 50)    
Moisture  
Dew Point 60 °F    
Average Humidity 58    
Maximum Humidity 71    
Minimum Humidity 42    
Precipitation  
Precipitation 0.00 in - - ()
Sea Level Pressure  
Sea Level Pressure 29.83 in    
Wind  
Wind Speed 10 mph (SSE)    
Max Wind Speed 25 mph    
Max Gust Speed 33 mph    
Visibility 10 miles    
Events Rain    
Averages and records for this station are not official NWS values.
T = Trace of Precipitation, MM = Missing Value Source: NWS Daily Summary

Daily Weather History Graph

Daily Weather History Graph

Search for Another Location

Airport or City:

Trip Planner

Search our weather history database for the weather conditions in past years. The results will help you decide how hot, cold, wet, or windy it might be!

Date:

Astronomy

Dec. 30, 2014 Rise Set
Actual Time 6:58 AM HST 5:55 PM HST
Civil Twilight 6:34 AM HST 6:19 PM HST
Nautical Twilight 6:06 AM HST 6:47 PM HST
Astronomical Twilight 5:39 AM HST 7:14 PM HST
Moon 1:51 PM HST (12/30) 1:59 AM HST (12/30)
Length of Visible Light 11h 45m
Length of Day
10h 57m
Waxing Gibbous, 73% of the Moon is Illuminated
Dec 30
Waxing Gibbous
Jan 4
Full
Jan 12
Last Quarter
Jan 20
New
Jan 26
First Quarter

Hourly Weather History & Observations

Time (HST) Temp. Heat Index Dew Point Humidity Pressure Visibility Wind Dir Wind Speed Gust Speed Precip Events Conditions
12:53 AM 72.0 °F - 60.1 °F 66% 29.88 in 10.0 mi East 4.6 mph - N/A   Overcast
1:53 AM 72.0 °F - 59.0 °F 64% 29.87 in 10.0 mi ESE 4.6 mph - N/A   Overcast
2:53 AM 73.0 °F - 60.1 °F 64% 29.86 in 10.0 mi Calm Calm - N/A   Mostly Cloudy
3:53 AM 73.0 °F - 61.0 °F 66% 29.85 in 10.0 mi East 3.5 mph - N/A   Overcast
4:53 AM 72.0 °F - 61.0 °F 68% 29.84 in 10.0 mi East 4.6 mph - N/A   Overcast
5:53 AM 72.0 °F - 61.0 °F 68% 29.86 in 10.0 mi East 4.6 mph - N/A   Mostly Cloudy
6:53 AM 73.0 °F - 61.0 °F 66% 29.89 in 10.0 mi East 4.6 mph - N/A   Overcast
7:53 AM 73.9 °F - 61.0 °F 64% 29.91 in 10.0 mi Calm Calm - N/A   Mostly Cloudy
8:53 AM 75.9 °F - 62.1 °F 62% 29.96 in 10.0 mi Calm Calm - N/A   Overcast
9:53 AM 73.9 °F - 64.0 °F 71% 29.94 in 7.0 mi South 8.1 mph - 0.00 in Rain Light Rain
10:53 AM 77.0 °F - 62.1 °F 60% 29.89 in 10.0 mi South 9.2 mph - 0.00 in   Mostly Cloudy
11:53 AM 82.0 °F 81.7 °F 57.0 °F 42% 29.84 in 10.0 mi South 10.4 mph 19.6 mph N/A   Partly Cloudy
12:53 PM 82.0 °F 82.1 °F 59.0 °F 45% 29.81 in 10.0 mi South 15.0 mph - N/A   Partly Cloudy
1:53 PM 82.0 °F 82.7 °F 61.0 °F 49% 29.75 in 10.0 mi South 21.9 mph - N/A   Clear
2:53 PM 82.9 °F 82.6 °F 57.9 °F 42% 29.73 in 10.0 mi South 20.7 mph 27.6 mph N/A   Clear
3:53 PM 82.9 °F 83.3 °F 61.0 °F 47% 29.73 in 10.0 mi South 24.2 mph 28.8 mph N/A   Clear
4:53 PM 80.1 °F 80.6 °F 57.9 °F 47% 29.75 in 10.0 mi South 25.3 mph 32.2 mph N/A   Clear
5:53 PM 78.1 °F - 60.1 °F 54% 29.77 in 10.0 mi South 21.9 mph 28.8 mph N/A   Clear
6:53 PM 77.0 °F - 60.1 °F 56% 29.77 in 10.0 mi SSE 24.2 mph 32.2 mph N/A   Scattered Clouds
7:53 PM 77.0 °F - 60.1 °F 56% 29.78 in 10.0 mi SSE 23.0 mph 28.8 mph N/A   Partly Cloudy
8:53 PM 77.0 °F - 60.1 °F 56% 29.80 in 10.0 mi SSE 21.9 mph 31.1 mph N/A   Scattered Clouds
9:53 PM 77.0 °F - 57.0 °F 50% 29.80 in 10.0 mi SSE 20.7 mph 27.6 mph N/A   Mostly Cloudy
10:53 PM 75.9 °F - 60.1 °F 58% 29.79 in 10.0 mi SSE 25.3 mph 33.4 mph N/A   Mostly Cloudy
11:53 PM 75.9 °F - 64.0 °F 67% 29.80 in 10.0 mi SSE 25.3 mph 32.2 mph N/A   Overcast